Location: Bagnolo San Vito
(45.0833°N, 10.8833°E)
Time: 23:12:00
(UTC+00:00)

Cosmos 2218 Rocket - Pass Details

Date: 03 March 2021
Orbit: 955 x 1007 km, 82.9° (Epoch: 17 April)

Event Time Altitude Azimuth Distance (km) Brightness Sun altitude
Rises 18:46:57 0° 175° (S) 3,718 6.9 -18.4°
Reaches altitude 10° 18:49:29 10° 173° (S) 2,775 6.2 -18.9°
Maximum altitude 18:55:47 64° 93° (E) 1,111 4.0 -20.0°
Drops below altitude 10° 19:02:07 10° 14° (NNE) 2,788 6.4 -21.1°
Sets 19:04:40 0° 12° (NNE) 3,737 7.1 -21.5°
